Year,Month,Day,Hour,Minute,Value (Times are PST for windspeed in km/hr)
2014,05,26,00,00,4.90
2014,05,26,00,01,4.70
2014,05,26,00,02,7.30
2014,05,26,00,03,9.30
2014,05,26,00,04,5.70
2014,05,26,00,05,3.60
2014,05,26,00,06,6.40
2014,05,26,00,07,6.10
2014,05,26,00,08,4.20
2014,05,26,00,09,5.20
2014,05,26,00,10,2.60
2014,05,26,00,11,1.40
2014,05,26,00,12,3.40
2014,05,26,00,13,5.60
2014,05,26,00,14,4.70
2014,05,26,00,15,7.90
2014,05,26,00,16,4.70
2014,05,26,00,17,5.00
2014,05,26,00,18,4.20
2014,05,26,00,19,5.50
2014,05,26,00,20,5.20
2014,05,26,00,21,4.90
2014,05,26,00,22,2.60
2014,05,26,00,23,5.00
2014,05,26,00,24,6.40
2014,05,26,00,25,1.90
2014,05,26,00,26,0.50
2014,05,26,00,27,1.00
2014,05,26,00,28,3.30
2014,05,26,00,29,4.80
2014,05,26,00,30,1.30
2014,05,26,00,31,1.80
2014,05,26,00,32,0.80
2014,05,26,00,33,3.90
2014,05,26,00,34,0.50
2014,05,26,00,35,1.60
2014,05,26,00,36,3.20
2014,05,26,00,37,0.60
2014,05,26,00,38,0.30
2014,05,26,00,39,3.00
2014,05,26,00,40,0.50
2014,05,26,00,41,0.50
2014,05,26,00,42,1.30
2014,05,26,00,43,3.50
2014,05,26,00,44,2.70
2014,05,26,00,45,0.50
2014,05,26,00,46,0.90
2014,05,26,00,47,1.00
2014,05,26,00,48,0.70
2014,05,26,00,49,1.60
2014,05,26,00,50,0.00
2014,05,26,00,51,1.80
2014,05,26,00,52,1.70
2014,05,26,00,53,3.50
2014,05,26,00,54,1.40
2014,05,26,00,55,0.20
2014,05,26,00,56,0.20
2014,05,26,00,57,0.00
2014,05,26,00,58,1.40
2014,05,26,00,59,2.40
2014,05,26,01,00,1.20
2014,05,26,01,01,1.00
2014,05,26,01,02,2.20
2014,05,26,01,03,3.20
2014,05,26,01,04,3.90
2014,05,26,01,05,6.10
2014,05,26,01,06,4.40
2014,05,26,01,07,4.10
2014,05,26,01,08,3.20
2014,05,26,01,09,1.50
2014,05,26,01,10,1.60
2014,05,26,01,11,2.40
2014,05,26,01,12,2.50
2014,05,26,01,13,1.00
2014,05,26,01,14,2.40
2014,05,26,01,15,2.60
2014,05,26,01,16,2.10
2014,05,26,01,17,1.80
2014,05,26,01,18,2.60
2014,05,26,01,19,3.50
2014,05,26,01,20,4.00
2014,05,26,01,21,2.80
2014,05,26,01,22,3.60
2014,05,26,01,23,3.30
2014,05,26,01,24,2.90
2014,05,26,01,25,4.10
2014,05,26,01,26,3.20
2014,05,26,01,27,4.00
2014,05,26,01,28,3.20
2014,05,26,01,29,2.80
2014,05,26,01,30,3.20
2014,05,26,01,31,3.40
2014,05,26,01,32,0.80
2014,05,26,01,33,1.60
2014,05,26,01,34,2.40
2014,05,26,01,35,0.50
2014,05,26,01,36,0.20
2014,05,26,01,37,1.20
2014,05,26,01,38,1.80
2014,05,26,01,39,1.10
2014,05,26,01,40,3.00
2014,05,26,01,41,3.90
2014,05,26,01,42,1.10
2014,05,26,01,43,0.20
2014,05,26,01,44,0.00
2014,05,26,01,45,0.60
2014,05,26,01,46,1.20
2014,05,26,01,47,2.40
2014,05,26,01,48,0.70
2014,05,26,01,49,1.50
2014,05,26,01,50,1.60
2014,05,26,01,51,2.30
2014,05,26,01,52,5.30
2014,05,26,01,53,3.20
2014,05,26,01,54,1.30
2014,05,26,01,55,2.90
2014,05,26,01,56,3.90
2014,05,26,01,57,3.80
2014,05,26,01,58,3.70
2014,05,26,01,59,5.80
2014,05,26,02,00,1.70
2014,05,26,02,01,3.50
2014,05,26,02,02,2.70
2014,05,26,02,03,0.60
2014,05,26,02,04,1.00
2014,05,26,02,05,1.60
2014,05,26,02,06,2.90
2014,05,26,02,07,0.60
2014,05,26,02,08,2.10
2014,05,26,02,09,1.60
2014,05,26,02,10,1.30
2014,05,26,02,11,2.50
2014,05,26,02,12,1.80
2014,05,26,02,13,0.00
2014,05,26,02,14,0.50
2014,05,26,02,15,0.30
2014,05,26,02,16,0.50
2014,05,26,02,17,0.70
2014,05,26,02,18,0.80
2014,05,26,02,19,2.00
2014,05,26,02,20,1.50
2014,05,26,02,21,2.60
2014,05,26,02,22,0.90
2014,05,26,02,23,0.60
2014,05,26,02,24,0.10
2014,05,26,02,25,0.30
2014,05,26,02,26,2.20
2014,05,26,02,27,3.00
2014,05,26,02,28,0.00
2014,05,26,02,29,0.30
2014,05,26,02,30,2.40
2014,05,26,02,31,1.90
2014,05,26,02,32,3.70
2014,05,26,02,33,1.80
2014,05,26,02,34,2.40
2014,05,26,02,35,1.40
2014,05,26,02,36,0.80
2014,05,26,02,37,0.60
2014,05,26,02,38,1.90
2014,05,26,02,39,2.70
2014,05,26,02,40,2.50
2014,05,26,02,41,3.00
2014,05,26,02,42,0.60
2014,05,26,02,43,2.00
2014,05,26,02,44,3.00
2014,05,26,02,45,3.60
2014,05,26,02,46,3.80
2014,05,26,02,47,5.00
2014,05,26,02,48,4.70
2014,05,26,02,49,4.20
2014,05,26,02,50,4.60
2014,05,26,02,51,4.50
2014,05,26,02,52,3.70
2014,05,26,02,53,3.90
2014,05,26,02,54,5.40
2014,05,26,02,55,3.60
2014,05,26,02,56,3.90
2014,05,26,02,57,3.30
2014,05,26,02,58,4.50
2014,05,26,02,59,5.50
2014,05,26,03,00,3.80
2014,05,26,03,01,2.00
2014,05,26,03,02,2.70
2014,05,26,03,03,5.00
2014,05,26,03,04,5.60
2014,05,26,03,05,6.40
2014,05,26,03,06,6.40
2014,05,26,03,07,6.70
2014,05,26,03,08,6.80
2014,05,26,03,09,6.10
2014,05,26,03,10,5.60
2014,05,26,03,11,5.90
2014,05,26,03,12,4.20
2014,05,26,03,13,7.80
2014,05,26,03,14,5.50
2014,05,26,03,15,6.90
2014,05,26,03,16,6.80
2014,05,26,03,17,5.00
2014,05,26,03,18,7.30
2014,05,26,03,19,5.80
2014,05,26,03,20,6.00
2014,05,26,03,21,5.80
2014,05,26,03,22,4.00
2014,05,26,03,23,4.40
2014,05,26,03,24,5.70
2014,05,26,03,25,5.80
2014,05,26,03,26,3.90
2014,05,26,03,27,5.80
2014,05,26,03,28,6.00
2014,05,26,03,29,2.80
2014,05,26,03,30,1.50
2014,05,26,03,31,1.10
2014,05,26,03,32,2.10
2014,05,26,03,33,0.80
2014,05,26,03,34,0.50
2014,05,26,03,35,1.50
2014,05,26,03,36,2.30
2014,05,26,03,37,3.60
2014,05,26,03,38,2.20
2014,05,26,03,39,5.90
2014,05,26,03,40,3.50
2014,05,26,03,41,3.10
2014,05,26,03,42,3.40
2014,05,26,03,43,3.10
2014,05,26,03,44,4.50
2014,05,26,03,45,5.30
2014,05,26,03,46,2.60
2014,05,26,03,47,2.60
2014,05,26,03,48,4.00
2014,05,26,03,49,0.40
2014,05,26,03,50,3.20
2014,05,26,03,51,2.30
2014,05,26,03,52,1.20
2014,05,26,03,53,1.00
2014,05,26,03,54,0.20
2014,05,26,03,55,0.40
2014,05,26,03,56,0.90
2014,05,26,03,57,1.80
2014,05,26,03,58,1.50
2014,05,26,03,59,2.30
2014,05,26,04,00,0.90
2014,05,26,04,01,0.00
2014,05,26,04,02,1.40
2014,05,26,04,03,0.20
2014,05,26,04,04,0.90
2014,05,26,04,05,1.90
2014,05,26,04,06,1.20
2014,05,26,04,07,1.20
2014,05,26,04,08,1.30
2014,05,26,04,09,0.20
2014,05,26,04,10,0.80
2014,05,26,04,11,0.70
2014,05,26,04,12,0.80
2014,05,26,04,13,0.00
2014,05,26,04,14,2.30
2014,05,26,04,15,1.50
2014,05,26,04,16,3.60
2014,05,26,04,17,3.80
2014,05,26,04,18,5.40
2014,05,26,04,19,4.90
2014,05,26,04,20,5.70
2014,05,26,04,21,4.10
2014,05,26,04,22,5.50
2014,05,26,04,23,4.50
2014,05,26,04,24,4.90
2014,05,26,04,25,7.40
2014,05,26,04,26,6.80
2014,05,26,04,27,6.50
2014,05,26,04,28,7.30
2014,05,26,04,29,7.90
2014,05,26,04,30,2.80
2014,05,26,04,31,2.20
2014,05,26,04,32,6.40
2014,05,26,04,33,5.40
2014,05,26,04,34,4.90
2014,05,26,04,35,3.10
2014,05,26,04,36,4.50
2014,05,26,04,37,6.30
2014,05,26,04,38,4.10
2014,05,26,04,39,3.70
2014,05,26,04,40,5.10
2014,05,26,04,41,5.40
2014,05,26,04,42,5.30
2014,05,26,04,43,6.10
2014,05,26,04,44,3.80
2014,05,26,04,45,1.70
2014,05,26,04,46,1.60
2014,05,26,04,47,0.50
2014,05,26,04,48,2.50
2014,05,26,04,49,2.30
2014,05,26,04,50,1.60
2014,05,26,04,51,0.10
2014,05,26,04,52,0.60
2014,05,26,04,53,2.40
2014,05,26,04,54,1.10
2014,05,26,04,55,0.90
2014,05,26,04,56,0.70
2014,05,26,04,57,0.80
2014,05,26,04,58,0.40
2014,05,26,04,59,0.10
2014,05,26,05,00,0.30
2014,05,26,05,01,0.40
2014,05,26,05,02,0.70
2014,05,26,05,03,0.50
2014,05,26,05,04,0.80
2014,05,26,05,05,1.50
2014,05,26,05,06,0.80
2014,05,26,05,07,1.70
2014,05,26,05,08,3.40
2014,05,26,05,09,2.80
2014,05,26,05,10,3.20
2014,05,26,05,11,3.20
2014,05,26,05,12,3.00
2014,05,26,05,13,1.40
2014,05,26,05,14,0.60
2014,05,26,05,15,1.40
2014,05,26,05,16,1.50
2014,05,26,05,17,2.40
2014,05,26,05,18,2.90
2014,05,26,05,19,0.80
2014,05,26,05,20,2.50
2014,05,26,05,21,2.90
2014,05,26,05,22,1.80
2014,05,26,05,23,3.40
2014,05,26,05,24,6.80
2014,05,26,05,25,8.90
2014,05,26,05,26,8.70
2014,05,26,05,27,6.40
2014,05,26,05,28,5.50
2014,05,26,05,29,5.50
2014,05,26,05,30,3.10
2014,05,26,05,31,5.10
2014,05,26,05,32,5.90
2014,05,26,05,33,2.40
2014,05,26,05,34,5.60
2014,05,26,05,35,4.30
2014,05,26,05,36,5.70
2014,05,26,05,37,5.00
2014,05,26,05,38,7.60
2014,05,26,05,39,3.70
2014,05,26,05,40,5.90
2014,05,26,05,41,10.00
2014,05,26,05,42,8.00
2014,05,26,05,43,10.90
2014,05,26,05,44,6.40
2014,05,26,05,45,8.80
2014,05,26,05,46,9.40
2014,05,26,05,47,13.70
2014,05,26,05,48,12.20
2014,05,26,05,49,16.50
2014,05,26,05,50,14.50
2014,05,26,05,51,12.20
2014,05,26,05,52,12.20
2014,05,26,05,53,11.80
2014,05,26,05,54,10.70
2014,05,26,05,55,11.40
2014,05,26,05,56,10.80
2014,05,26,05,57,9.00
2014,05,26,05,58,10.50
2014,05,26,05,59,9.00
2014,05,26,06,00,9.80
2014,05,26,06,01,13.90
2014,05,26,06,02,8.70
2014,05,26,06,03,10.70
2014,05,26,06,04,7.60
2014,05,26,06,05,9.70
2014,05,26,06,06,6.10
2014,05,26,06,07,7.10
2014,05,26,06,08,8.40
2014,05,26,06,09,9.10
2014,05,26,06,10,12.90
2014,05,26,06,11,11.60
2014,05,26,06,12,11.70
2014,05,26,06,13,12.10
2014,05,26,06,14,12.50
2014,05,26,06,15,13.20
2014,05,26,06,16,9.60
2014,05,26,06,17,11.30
2014,05,26,06,18,11.70
2014,05,26,06,19,7.00
2014,05,26,06,20,8.90
2014,05,26,06,21,8.20
2014,05,26,06,22,7.50
2014,05,26,06,23,8.40
2014,05,26,06,24,18.70
2014,05,26,06,25,13.60
2014,05,26,06,26,14.00
2014,05,26,06,27,11.60
2014,05,26,06,28,17.40
2014,05,26,06,29,15.20
2014,05,26,06,30,19.20
2014,05,26,06,31,15.30
2014,05,26,06,32,14.60
2014,05,26,06,33,17.50
2014,05,26,06,34,8.70
2014,05,26,06,35,14.50
2014,05,26,06,36,13.40
2014,05,26,06,37,12.10
2014,05,26,06,38,20.40
2014,05,26,06,39,22.10
2014,05,26,06,40,19.30
2014,05,26,06,41,15.60
2014,05,26,06,42,13.20
2014,05,26,06,43,19.80
2014,05,26,06,44,17.40
2014,05,26,06,45,18.90
2014,05,26,06,46,15.10
2014,05,26,06,47,18.10
2014,05,26,06,48,15.90
2014,05,26,06,49,14.10
2014,05,26,06,50,14.00
2014,05,26,06,51,11.40
2014,05,26,06,52,16.20
2014,05,26,06,53,13.00
2014,05,26,06,54,14.80
2014,05,26,06,55,12.40
2014,05,26,06,56,11.40
2014,05,26,06,57,16.30
2014,05,26,06,58,10.70
2014,05,26,06,59,12.30
2014,05,26,07,00,13.90
2014,05,26,07,01,12.70
2014,05,26,07,02,13.60
2014,05,26,07,03,13.40
2014,05,26,07,04,12.70
2014,05,26,07,05,14.80
2014,05,26,07,06,15.30
2014,05,26,07,07,14.30
2014,05,26,07,08,16.00
2014,05,26,07,09,16.70
2014,05,26,07,10,16.70
2014,05,26,07,11,15.20
2014,05,26,07,12,15.40
2014,05,26,07,13,17.20
2014,05,26,07,14,12.90
2014,05,26,07,15,16.20
2014,05,26,07,16,10.30
2014,05,26,07,17,12.90
2014,05,26,07,18,11.90
2014,05,26,07,19,14.20
2014,05,26,07,20,15.40
2014,05,26,07,21,13.60
2014,05,26,07,22,11.10
2014,05,26,07,23,9.10
2014,05,26,07,24,15.70
2014,05,26,07,25,11.20
2014,05,26,07,26,15.30
2014,05,26,07,27,15.70
2014,05,26,07,28,18.40
2014,05,26,07,29,17.40
2014,05,26,07,30,13.00
2014,05,26,07,31,17.80
2014,05,26,07,32,22.70
2014,05,26,07,33,21.10
2014,05,26,07,34,15.40
2014,05,26,07,35,23.80
2014,05,26,07,36,26.40
2014,05,26,07,37,22.50
2014,05,26,07,38,21.90
2014,05,26,07,39,22.50
2014,05,26,07,40,22.80
2014,05,26,07,41,24.50
2014,05,26,07,42,24.90
2014,05,26,07,43,24.40
2014,05,26,07,44,18.20
2014,05,26,07,45,17.60
2014,05,26,07,46,24.20
2014,05,26,07,47,22.10
2014,05,26,07,48,14.00
2014,05,26,07,49,15.40
2014,05,26,07,50,21.50
2014,05,26,07,51,15.40
2014,05,26,07,52,21.30
2014,05,26,07,53,18.70
2014,05,26,07,54,17.00
2014,05,26,07,55,15.00
2014,05,26,07,56,18.70
2014,05,26,07,57,16.50
2014,05,26,07,58,15.90
2014,05,26,07,59,14.00
2014,05,26,08,00,23.50
2014,05,26,08,01,20.80
2014,05,26,08,02,20.70
2014,05,26,08,03,20.10
2014,05,26,08,04,21.20
2014,05,26,08,05,18.90
2014,05,26,08,06,16.70
2014,05,26,08,07,13.50
2014,05,26,08,08,20.90
2014,05,26,08,09,22.10
2014,05,26,08,10,22.10
2014,05,26,08,11,16.70
2014,05,26,08,12,13.00
2014,05,26,08,13,16.60
2014,05,26,08,14,20.80
2014,05,26,08,15,23.40
2014,05,26,08,16,21.80
2014,05,26,08,17,21.10
2014,05,26,08,18,22.50
2014,05,26,08,19,19.20
2014,05,26,08,20,22.50
2014,05,26,08,21,27.70
2014,05,26,08,22,24.40
2014,05,26,08,23,22.00
2014,05,26,08,24,22.80
2014,05,26,08,25,19.80
2014,05,26,08,26,21.90
2014,05,26,08,27,22.80
2014,05,26,08,28,21.20
2014,05,26,08,29,21.80
2014,05,26,08,30,22.20
2014,05,26,08,31,17.90
2014,05,26,08,32,18.90
2014,05,26,08,33,21.00
2014,05,26,08,34,22.50
2014,05,26,08,35,14.30
2014,05,26,08,36,19.90
2014,05,26,08,37,23.40
2014,05,26,08,38,24.60
2014,05,26,08,39,25.00
2014,05,26,08,40,24.10
2014,05,26,08,41,22.90
2014,05,26,08,42,24.10
2014,05,26,08,43,25.20
2014,05,26,08,44,28.00
2014,05,26,08,45,25.40
2014,05,26,08,46,21.60
2014,05,26,08,47,18.60
2014,05,26,08,48,22.30
2014,05,26,08,49,17.70
2014,05,26,08,50,17.00
2014,05,26,08,51,22.40
2014,05,26,08,52,18.30
2014,05,26,08,53,20.70
2014,05,26,08,54,19.30
2014,05,26,08,55,19.50
2014,05,26,08,56,22.70
2014,05,26,08,57,22.60
2014,05,26,08,58,23.20
2014,05,26,08,59,19.80
2014,05,26,09,00,21.90
2014,05,26,09,01,19.70
2014,05,26,09,02,17.70
2014,05,26,09,03,24.80
2014,05,26,09,04,20.50
2014,05,26,09,05,21.00
2014,05,26,09,06,25.80
2014,05,26,09,07,26.60
2014,05,26,09,08,18.90
2014,05,26,09,09,19.90
2014,05,26,09,10,20.10
2014,05,26,09,11,21.30
2014,05,26,09,12,22.80
2014,05,26,09,13,24.20
2014,05,26,09,14,25.60
2014,05,26,09,15,22.50
2014,05,26,09,16,25.30
2014,05,26,09,17,16.70
2014,05,26,09,18,22.20
2014,05,26,09,19,19.70
2014,05,26,09,20,14.30
2014,05,26,09,21,25.10
2014,05,26,09,22,23.40
2014,05,26,09,23,23.90
2014,05,26,09,24,17.90
2014,05,26,09,25,20.00
2014,05,26,09,26,26.70
2014,05,26,09,27,33.80
2014,05,26,09,28,27.40
2014,05,26,09,29,24.40
2014,05,26,09,30,22.20
2014,05,26,09,31,21.10
2014,05,26,09,32,27.10
2014,05,26,09,33,18.90
2014,05,26,09,34,26.40
2014,05,26,09,35,24.70
2014,05,26,09,36,20.40
2014,05,26,09,37,23.00
2014,05,26,09,38,25.30
2014,05,26,09,39,27.70
2014,05,26,09,40,28.10
2014,05,26,09,41,27.00
2014,05,26,09,42,22.40
2014,05,26,09,43,15.30
2014,05,26,09,44,18.00
2014,05,26,09,45,29.10
2014,05,26,09,46,30.00
2014,05,26,09,47,35.00
2014,05,26,09,48,22.50
2014,05,26,09,49,31.30
2014,05,26,09,50,28.70
2014,05,26,09,51,20.40
2014,05,26,09,52,27.00
2014,05,26,09,53,29.80
2014,05,26,09,54,26.10
2014,05,26,09,55,36.10
2014,05,26,09,56,33.40
2014,05,26,09,57,32.40
2014,05,26,09,58,25.90
2014,05,26,09,59,29.80
2014,05,26,10,00,32.20
2014,05,26,10,01,29.40
2014,05,26,10,02,33.10
2014,05,26,10,03,27.30
2014,05,26,10,04,29.90
2014,05,26,10,05,22.20
2014,05,26,10,06,13.20
2014,05,26,10,07,22.30
2014,05,26,10,08,27.40
2014,05,26,10,09,21.40
2014,05,26,10,10,18.40
2014,05,26,10,11,30.50
2014,05,26,10,12,33.00
2014,05,26,10,13,32.10
2014,05,26,10,14,19.20
2014,05,26,10,15,29.00
2014,05,26,10,16,33.50
2014,05,26,10,17,27.80
2014,05,26,10,18,26.20
2014,05,26,10,19,29.50
2014,05,26,10,20,32.90
2014,05,26,10,21,25.50
2014,05,26,10,22,33.00
2014,05,26,10,23,32.20
2014,05,26,10,24,20.00
2014,05,26,10,25,27.10
2014,05,26,10,26,26.70
2014,05,26,10,27,21.90
2014,05,26,10,28,26.90
2014,05,26,10,29,30.80
2014,05,26,10,30,34.30
2014,05,26,10,31,26.30
2014,05,26,10,32,34.40
2014,05,26,10,33,37.60
2014,05,26,10,34,36.00
2014,05,26,10,35,35.60
2014,05,26,10,36,37.30
2014,05,26,10,37,33.10
2014,05,26,10,38,22.30
2014,05,26,10,39,28.80
2014,05,26,10,40,30.80
2014,05,26,10,41,36.60
2014,05,26,10,42,33.00
2014,05,26,10,43,25.40
2014,05,26,10,44,40.30
2014,05,26,10,45,41.80
2014,05,26,10,46,36.90
2014,05,26,10,47,37.40
2014,05,26,10,48,31.30
2014,05,26,10,49,28.30
2014,05,26,10,50,27.60
2014,05,26,10,51,34.10
2014,05,26,10,52,29.90
2014,05,26,10,53,26.90
2014,05,26,10,54,28.00
2014,05,26,10,55,29.20
2014,05,26,10,56,31.70
2014,05,26,10,57,32.70
2014,05,26,10,58,25.90
2014,05,26,10,59,24.10
2014,05,26,11,00,26.30
2014,05,26,11,01,35.30
2014,05,26,11,02,42.20
2014,05,26,11,03,37.70
2014,05,26,11,04,38.90
2014,05,26,11,05,37.50
2014,05,26,11,06,34.90
2014,05,26,11,07,35.80
2014,05,26,11,08,28.00
2014,05,26,11,09,34.60
2014,05,26,11,10,37.70
2014,05,26,11,11,35.80
2014,05,26,11,12,38.10
2014,05,26,11,13,39.10
2014,05,26,11,14,39.20
2014,05,26,11,15,32.20
2014,05,26,11,16,29.60
2014,05,26,11,17,33.20
2014,05,26,11,18,26.50
2014,05,26,11,19,36.10
2014,05,26,11,20,38.50
2014,05,26,11,21,33.30
2014,05,26,11,22,35.10
2014,05,26,11,23,31.90
2014,05,26,11,24,29.40
2014,05,26,11,25,34.70
2014,05,26,11,26,33.60
2014,05,26,11,27,37.50
2014,05,26,11,28,33.80
2014,05,26,11,29,29.30
2014,05,26,11,30,32.00
2014,05,26,11,31,35.50
2014,05,26,11,32,37.60
2014,05,26,11,33,30.10
2014,05,26,11,34,34.10
2014,05,26,11,35,36.90
2014,05,26,11,36,29.80
2014,05,26,11,37,27.40
2014,05,26,11,38,25.90
2014,05,26,11,39,21.70
2014,05,26,11,40,24.90
2014,05,26,11,41,23.90
2014,05,26,11,42,28.30
2014,05,26,11,43,30.10
2014,05,26,11,44,29.90
2014,05,26,11,45,25.50
2014,05,26,11,46,24.50
2014,05,26,11,47,18.20
2014,05,26,11,48,32.20
2014,05,26,11,49,31.50
2014,05,26,11,50,30.60
2014,05,26,11,51,21.20
2014,05,26,11,52,29.00
2014,05,26,11,53,25.70
2014,05,26,11,54,23.60
2014,05,26,11,55,25.20
2014,05,26,11,56,27.30
2014,05,26,11,57,24.70
2014,05,26,11,58,27.50
2014,05,26,11,59,25.30
2014,05,26,12,00,21.60
2014,05,26,12,01,18.90
2014,05,26,12,02,21.60
2014,05,26,12,03,22.20
2014,05,26,12,04,18.80
2014,05,26,12,05,23.80
2014,05,26,12,06,22.90
2014,05,26,12,07,28.10
2014,05,26,12,08,21.50
2014,05,26,12,09,24.80
2014,05,26,12,10,21.90
2014,05,26,12,11,20.60
2014,05,26,12,12,22.50
2014,05,26,12,13,22.60
2014,05,26,12,14,27.70
2014,05,26,12,15,22.40
2014,05,26,12,16,21.60
2014,05,26,12,17,25.00
2014,05,26,12,18,25.60
2014,05,26,12,19,22.40
2014,05,26,12,20,23.70
2014,05,26,12,21,23.10
2014,05,26,12,22,18.30
2014,05,26,12,23,18.20
2014,05,26,12,24,22.10
2014,05,26,12,25,24.30
2014,05,26,12,26,23.30
2014,05,26,12,27,20.10
2014,05,26,12,28,26.50
2014,05,26,12,29,25.60
2014,05,26,12,30,25.70
2014,05,26,12,31,24.70
2014,05,26,12,32,21.80
2014,05,26,12,33,25.80
2014,05,26,12,34,29.20
2014,05,26,12,35,31.90
2014,05,26,12,36,25.20
2014,05,26,12,37,27.70
2014,05,26,12,38,33.10
2014,05,26,12,39,25.70
2014,05,26,12,40,28.40
2014,05,26,12,41,32.80
2014,05,26,12,42,29.30
2014,05,26,12,43,32.60
2014,05,26,12,44,34.20
2014,05,26,12,45,32.60
2014,05,26,12,46,35.00
2014,05,26,12,47,32.20
2014,05,26,12,48,35.10
2014,05,26,12,49,30.90
2014,05,26,12,50,29.60
2014,05,26,12,51,31.30
2014,05,26,12,52,33.70
2014,05,26,12,53,38.10
2014,05,26,12,54,33.50
2014,05,26,12,55,35.20
2014,05,26,12,56,34.80
2014,05,26,12,57,44.90
2014,05,26,12,58,40.20
2014,05,26,12,59,41.70
2014,05,26,13,00,40.70
2014,05,26,13,01,32.40
2014,05,26,13,02,29.50
2014,05,26,13,03,39.40
2014,05,26,13,04,46.70
2014,05,26,13,05,32.80
2014,05,26,13,06,37.00
2014,05,26,13,07,33.00
2014,05,26,13,08,35.70
2014,05,26,13,09,27.30
2014,05,26,13,10,28.30
2014,05,26,13,11,37.50
2014,05,26,13,12,34.60
2014,05,26,13,13,28.40
2014,05,26,13,14,24.10
2014,05,26,13,15,34.90
2014,05,26,13,16,38.30
2014,05,26,13,17,26.70
2014,05,26,13,18,30.90
2014,05,26,13,19,29.10
2014,05,26,13,20,36.70
2014,05,26,13,21,31.40
2014,05,26,13,22,36.40
2014,05,26,13,23,36.60
2014,05,26,13,24,28.70
2014,05,26,13,25,26.00
2014,05,26,13,26,30.60
2014,05,26,13,27,20.70
2014,05,26,13,28,29.40
2014,05,26,13,29,29.10
2014,05,26,13,30,21.00
2014,05,26,13,31,29.30
2014,05,26,13,32,25.50
2014,05,26,13,33,24.90
2014,05,26,13,34,30.80
2014,05,26,13,35,33.40
2014,05,26,13,36,31.00
2014,05,26,13,37,33.30
2014,05,26,13,38,30.60
2014,05,26,13,39,32.60
2014,05,26,13,40,34.70
2014,05,26,13,41,35.50
2014,05,26,13,42,37.10
2014,05,26,13,43,40.60
2014,05,26,13,44,36.20
2014,05,26,13,45,31.50
2014,05,26,13,46,32.20
2014,05,26,13,47,31.20
2014,05,26,13,48,35.00
2014,05,26,13,49,34.50
2014,05,26,13,50,31.10
2014,05,26,13,51,28.20
2014,05,26,13,52,30.70
2014,05,26,13,53,26.70
2014,05,26,13,54,29.40
2014,05,26,13,55,27.90
2014,05,26,13,56,29.50
2014,05,26,13,57,32.70
2014,05,26,13,58,23.70
2014,05,26,13,59,27.00
2014,05,26,14,00,29.00
2014,05,26,14,01,30.00
2014,05,26,14,02,33.10
2014,05,26,14,03,27.20
2014,05,26,14,04,33.30
2014,05,26,14,05,26.40
2014,05,26,14,06,25.70
2014,05,26,14,07,22.40
2014,05,26,14,08,31.20
2014,05,26,14,09,30.80
2014,05,26,14,10,33.60
2014,05,26,14,11,34.10
2014,05,26,14,12,27.40
2014,05,26,14,13,21.60
2014,05,26,14,14,29.80
2014,05,26,14,15,33.60
2014,05,26,14,16,32.60
2014,05,26,14,17,31.20
2014,05,26,14,18,35.60
2014,05,26,14,19,35.40
2014,05,26,14,20,36.90
2014,05,26,14,21,32.60
2014,05,26,14,22,25.80
2014,05,26,14,23,20.40
2014,05,26,14,24,22.10
2014,05,26,14,25,28.00
2014,05,26,14,26,33.70
2014,05,26,14,27,35.20
2014,05,26,14,28,29.60
2014,05,26,14,29,33.20
2014,05,26,14,30,33.40
2014,05,26,14,31,33.60
2014,05,26,14,32,35.60
2014,05,26,14,33,25.40
2014,05,26,14,34,27.90
2014,05,26,14,35,21.60
2014,05,26,14,36,23.30
2014,05,26,14,37,27.10
2014,05,26,14,38,30.10
2014,05,26,14,39,18.20
2014,05,26,14,40,21.10
2014,05,26,14,41,27.70
2014,05,26,14,42,24.80
2014,05,26,14,43,23.00
2014,05,26,14,44,24.60
2014,05,26,14,45,23.50
2014,05,26,14,46,29.10
2014,05,26,14,47,27.70
2014,05,26,14,48,29.90
2014,05,26,14,49,32.20
2014,05,26,14,50,34.50
2014,05,26,14,51,32.00
2014,05,26,14,52,29.50
2014,05,26,14,53,29.00
2014,05,26,14,54,33.40
2014,05,26,14,55,31.80
2014,05,26,14,56,27.40
2014,05,26,14,57,21.20
2014,05,26,14,58,29.40
2014,05,26,14,59,33.40
2014,05,26,15,00,26.20
2014,05,26,15,01,31.60
2014,05,26,15,02,20.20
2014,05,26,15,03,35.00
2014,05,26,15,04,20.20
2014,05,26,15,05,28.10
2014,05,26,15,06,28.20
2014,05,26,15,07,23.80
2014,05,26,15,08,30.80
2014,05,26,15,09,31.70
2014,05,26,15,10,31.50
2014,05,26,15,11,28.70
2014,05,26,15,12,28.70
2014,05,26,15,13,28.70
2014,05,26,15,14,29.40
2014,05,26,15,15,25.40
2014,05,26,15,16,28.60
2014,05,26,15,17,30.80
2014,05,26,15,18,29.00
2014,05,26,15,19,29.90
2014,05,26,15,20,28.70
2014,05,26,15,21,32.10
2014,05,26,15,22,24.50
2014,05,26,15,23,24.40
2014,05,26,15,24,26.80
2014,05,26,15,25,28.10
2014,05,26,15,26,33.40
2014,05,26,15,27,23.80
2014,05,26,15,28,31.10
2014,05,26,15,29,21.80
2014,05,26,15,30,27.60
2014,05,26,15,31,28.70
2014,05,26,15,32,22.50
2014,05,26,15,33,22.00
2014,05,26,15,34,28.80
2014,05,26,15,35,28.20
2014,05,26,15,36,16.20
2014,05,26,15,37,24.70
2014,05,26,15,38,24.50
2014,05,26,15,39,32.60
2014,05,26,15,40,25.90
2014,05,26,15,41,23.30
2014,05,26,15,42,28.80
2014,05,26,15,43,31.50
2014,05,26,15,44,30.60
2014,05,26,15,45,28.50
2014,05,26,15,46,23.50
2014,05,26,15,47,19.00
2014,05,26,15,48,27.40
2014,05,26,15,49,19.50
2014,05,26,15,50,20.40
2014,05,26,15,51,20.90
2014,05,26,15,52,30.60
2014,05,26,15,53,31.50
2014,05,26,15,54,34.00
2014,05,26,15,55,31.50
2014,05,26,15,56,35.50
2014,05,26,15,57,33.20
2014,05,26,15,58,30.90
2014,05,26,15,59,28.90
2014,05,26,16,00,33.20
2014,05,26,16,01,33.50
2014,05,26,16,02,38.20
2014,05,26,16,03,27.60
2014,05,26,16,04,27.90
2014,05,26,16,05,22.70
2014,05,26,16,06,31.30
2014,05,26,16,07,34.40
2014,05,26,16,08,23.80
2014,05,26,16,09,14.10
2014,05,26,16,10,25.50
2014,05,26,16,11,38.20
2014,05,26,16,12,33.10
2014,05,26,16,13,32.80
2014,05,26,16,14,30.60
2014,05,26,16,15,27.30
2014,05,26,16,16,28.80
2014,05,26,16,17,36.30
2014,05,26,16,18,37.90
2014,05,26,16,19,36.10
2014,05,26,16,20,40.70
2014,05,26,16,21,33.10
2014,05,26,16,22,32.80
2014,05,26,16,23,24.00
2014,05,26,16,24,27.70
2014,05,26,16,25,27.00
2014,05,26,16,26,29.40
2014,05,26,16,27,31.40
2014,05,26,16,28,26.20
2014,05,26,16,29,29.70
2014,05,26,16,30,30.80
2014,05,26,16,31,33.60
2014,05,26,16,32,29.80
2014,05,26,16,33,33.40
2014,05,26,16,34,29.60
2014,05,26,16,35,31.50
2014,05,26,16,36,35.60
2014,05,26,16,37,31.70
2014,05,26,16,38,31.60
2014,05,26,16,39,37.20
2014,05,26,16,40,30.20
2014,05,26,16,41,26.10
2014,05,26,16,42,29.00
2014,05,26,16,43,29.10
2014,05,26,16,44,25.00
2014,05,26,16,45,27.80
2014,05,26,16,46,28.60
2014,05,26,16,47,31.80
2014,05,26,16,48,31.10
2014,05,26,16,49,28.30
2014,05,26,16,50,24.10
2014,05,26,16,51,27.20
2014,05,26,16,52,19.20
2014,05,26,16,53,22.20
2014,05,26,16,54,24.20
2014,05,26,16,55,26.90
2014,05,26,16,56,35.50
2014,05,26,16,57,24.10
2014,05,26,16,58,24.30
2014,05,26,16,59,26.70
2014,05,26,17,00,28.10
2014,05,26,17,01,28.50
2014,05,26,17,02,18.00
2014,05,26,17,03,27.00
2014,05,26,17,04,28.30
2014,05,26,17,05,30.80
2014,05,26,17,06,31.30
2014,05,26,17,07,27.30
2014,05,26,17,08,31.30
2014,05,26,17,09,26.30
2014,05,26,17,10,24.40
2014,05,26,17,11,27.40
2014,05,26,17,12,32.60
2014,05,26,17,13,30.70
2014,05,26,17,14,29.90
2014,05,26,17,15,23.10
2014,05,26,17,16,24.30
2014,05,26,17,17,18.10
2014,05,26,17,18,31.10
2014,05,26,17,19,24.80
2014,05,26,17,20,23.10
2014,05,26,17,21,28.20
2014,05,26,17,22,30.80
2014,05,26,17,23,21.20
2014,05,26,17,24,31.80
2014,05,26,17,25,27.20
2014,05,26,17,26,29.10
2014,05,26,17,27,19.60
2014,05,26,17,28,22.50
2014,05,26,17,29,26.10
2014,05,26,17,30,28.00
2014,05,26,17,31,28.40
2014,05,26,17,32,28.10
2014,05,26,17,33,27.80
2014,05,26,17,34,20.80
2014,05,26,17,35,24.30